When you browse on this site, cookies collect data to enhance your experience and personalize the content and advertising you see.
Visit our Privacy Policy to learn more. By continuing to use the site, you agree to this use of cookies and data.
  • En España
  • Lista de países
  • Para 7 días
  • Temperatura del agua
  • Mapa Satelital
  • El tiempo en el mapa
  • Informadores
  • user-avatar
    Iniciar sesión

    Tiempo cada hora Barybino

    Hoy, 20 Marzo, Miércoles

    Tiempo Temperatura Precipitaciones Viento Presión Humedad
    00:00 0°C° 0.1 mm 3 mps 749 mmHg 98%
    01:00 0°C° 0 mm 3 mps 749 mmHg 98%
    02:00 0°C° 0 mm 3 mps 749 mmHg 97%
    03:00 -1°C° 0 mm 3 mps 749 mmHg 97%
    04:00 -1°C° 0 mm 3 mps 749 mmHg 96%
    05:00 -1°C° 0 mm 3 mps 749 mmHg 95%
    06:00 -1°C° 0 mm 3 mps 749 mmHg 94%
    07:00 0°C° 0 mm 3 mps 749 mmHg 93%
    08:00 0°C° 0 mm 3 mps 749 mmHg 91%
    09:00 +1°C° 0 mm 3 mps 750 mmHg 90%
    10:00 +1°C° 0 mm 3 mps 750 mmHg 87%
    11:00 +2°C° 0 mm 3 mps 750 mmHg 85%
    12:00 +3°C° 0 mm 3 mps 750 mmHg 82%
    13:00 +3°C° 0 mm 3 mps 750 mmHg 80%
    14:00 +3°C° 0 mm 3 mps 750 mmHg 78%
    15:00 +3°C° 0 mm 3 mps 750 mmHg 76%
    16:00 +2°C° 0 mm 3 mps 750 mmHg 79%
    17:00 +2°C° 0 mm 3 mps 750 mmHg 81%
    18:00 +2°C° 0 mm 2 mps 750 mmHg 84%
    19:00 +1°C° 0 mm 2 mps 750 mmHg 86%
    20:00 +1°C° 0 mm 2 mps 750 mmHg 88%
    21:00 -1°C° 0 mm 2 mps 751 mmHg 90%
    22:00 -1°C° 0 mm 2 mps 750 mmHg 90%
    23:00 -2°C° 0 mm 2 mps 750 mmHg 90%

    Mañana, 21 Marzo, Jueves

    Tiempo Temperatura Precipitaciones Viento Presión Humedad
    00:00 -2°C° 0 mm 2 mps 750 mmHg 91%
    01:00 -2°C° 0 mm 2 mps 750 mmHg 89%
    02:00 -2°C° 0 mm 3 mps 750 mmHg 88%
    03:00 -2°C° 0 mm 3 mps 750 mmHg 87%
    04:00 -2°C° 0 mm 3 mps 749 mmHg 84%
    05:00 -2°C° 0 mm 3 mps 749 mmHg 81%
    06:00 -1°C° 0 mm 3 mps 748 mmHg 78%
    07:00 -2°C° 0 mm 4 mps 748 mmHg 77%
    08:00 -2°C° 0 mm 4 mps 748 mmHg 76%
    09:00 -1°C° 0 mm 5 mps 747 mmHg 75%
    10:00 -1°C° 0.3 mm 5 mps 747 mmHg 78%
    11:00 -1°C° 0.3 mm 5 mps 747 mmHg 81%
    12:00 -1°C° 0.3 mm 5 mps 746 mmHg 84%
    13:00 0°C° 0.1 mm 5 mps 746 mmHg 84%
    14:00 0°C° 0.1 mm 4 mps 746 mmHg 85%
    15:00 0°C° 0.1 mm 4 mps 746 mmHg 85%
    16:00 0°C° 0.1 mm 4 mps 746 mmHg 86%
    17:00 0°C° 0.1 mm 4 mps 746 mmHg 88%
    18:00 0°C° 0.1 mm 4 mps 746 mmHg 89%
    19:00 0°C° 0.1 mm 4 mps 746 mmHg 88%
    20:00 -1°C° 0.1 mm 4 mps 747 mmHg 87%
    21:00 -1°C° 0.1 mm 5 mps 747 mmHg 86%
    22:00 -1°C° 0 mm 4 mps 747 mmHg 88%
    23:00 -2°C° 0 mm 4 mps 747 mmHg 89%

    Pasado mañana, 22 Marzo, Viernes

    Tiempo Temperatura Precipitaciones Viento Presión Humedad
    00:00 -2°C° 0 mm 4 mps 747 mmHg 91%
    01:00 -2°C° 0 mm 3 mps 747 mmHg 91%
    02:00 -2°C° 0 mm 3 mps 747 mmHg 92%
    03:00 -2°C° 0 mm 3 mps 747 mmHg 92%
    04:00 -2°C° 0 mm 3 mps 747 mmHg 91%
    05:00 -2°C° 0 mm 2 mps 747 mmHg 91%
    06:00 -2°C° 0 mm 2 mps 747 mmHg 90%
    07:00 -1°C° 0 mm 2 mps 747 mmHg 89%
    08:00 0°C° 0 mm 3 mps 747 mmHg 87%
    09:00 +1°C° 0 mm 3 mps 747 mmHg 86%
    10:00 +1°C° 0.1 mm 3 mps 746 mmHg 84%
    11:00 +1°C° 0.1 mm 4 mps 746 mmHg 83%
    12:00 +3°C° 0.1 mm 4 mps 745 mmHg 81%
    13:00 +3°C° 0.4 mm 4 mps 745 mmHg 83%
    14:00 +1°C° 0.4 mm 4 mps 744 mmHg 86%
    15:00 +1°C° 0.4 mm 5 mps 743 mmHg 88%
    16:00 +1°C° 0 mm 4 mps 743 mmHg 91%
    17:00 +1°C° 0 mm 4 mps 743 mmHg 93%
    18:00 +1°C° 0 mm 4 mps 743 mmHg 95%
    19:00 +1°C° 0 mm 4 mps 743 mmHg 94%
    20:00 +1°C° 0 mm 4 mps 744 mmHg 93%
    21:00 +1°C° 0 mm 5 mps 744 mmHg 92%
    22:00 0°C° 0 mm 5 mps 744 mmHg 91%
    23:00 0°C° 0 mm 5 mps 744 mmHg 91%

    23 Marzo, Sábado

    Tiempo Temperatura Precipitaciones Viento Presión Humedad
    00:00 -1°C° 0 mm 5 mps 744 mmHg 91%
    01:00 -1°C° 0 mm 5 mps 744 mmHg 90%
    02:00 -2°C° 0 mm 5 mps 744 mmHg 88%
    03:00 -2°C° 0 mm 5 mps 745 mmHg 87%
    04:00 -4°C° 0 mm 5 mps 745 mmHg 86%
    05:00 -4°C° 0 mm 5 mps 745 mmHg 85%
    06:00 -4°C° 0 mm 5 mps 745 mmHg 85%
    07:00 -4°C° 0 mm 5 mps 745 mmHg 82%
    08:00 -4°C° 0 mm 5 mps 745 mmHg 80%
    09:00 -2°C° 0 mm 5 mps 746 mmHg 78%
    10:00 -1°C° 0 mm 4 mps 746 mmHg 74%
    11:00 0°C° 0 mm 4 mps 745 mmHg 70%
    12:00 +1°C° 0 mm 4 mps 745 mmHg 66%
    13:00 +3°C° 0 mm 4 mps 745 mmHg 65%
    14:00 +3°C° 0 mm 4 mps 745 mmHg 63%
    15:00 +4°C° 0 mm 3 mps 744 mmHg 62%
    16:00 +3°C° 0 mm 3 mps 744 mmHg 65%
    17:00 +3°C° 0 mm 3 mps 743 mmHg 68%
    18:00 +3°C° 0 mm 2 mps 743 mmHg 71%
    19:00 +2°C° 0 mm 3 mps 742 mmHg 75%
    20:00 +1°C° 0 mm 4 mps 742 mmHg 80%
    21:00 +1°C° 0 mm 4 mps 741 mmHg 84%
    22:00 +2°C° 0.1 mm 5 mps 740 mmHg 87%
    23:00 +2°C° 0.1 mm 5 mps 740 mmHg 91%

    24 Marzo, Domingo

    Tiempo Temperatura Precipitaciones Viento Presión Humedad
    00:00 +3°C° 0.1 mm 6 mps 739 mmHg 94%
    01:00 +3°C° 0.5 mm 6 mps 738 mmHg 94%
    02:00 +4°C° 0.5 mm 6 mps 738 mmHg 93%
    03:00 +4°C° 0.5 mm 6 mps 738 mmHg 93%
    04:00 +2°C° 0 mm 6 mps 738 mmHg 92%
    05:00 +1°C° 0 mm 5 mps 738 mmHg 91%
    06:00 0°C° 0 mm 5 mps 739 mmHg 89%
    07:00 -1°C° 0 mm 6 mps 739 mmHg 83%
    08:00 -1°C° 0 mm 6 mps 739 mmHg 76%
    09:00 0°C° 0 mm 7 mps 740 mmHg 69%
    10:00 0°C° 0 mm 8 mps 739 mmHg 61%
    11:00 +1°C° 0 mm 9 mps 739 mmHg 53%
    12:00 +2°C° 0 mm 10 mps 739 mmHg 44%
    13:00 +2°C° 0 mm 10 mps 739 mmHg 44%
    14:00 +2°C° 0 mm 10 mps 739 mmHg 44%
    15:00 +3°C° 0 mm 10 mps 738 mmHg 43%
    16:00 +2°C° 0 mm 9 mps 738 mmHg 47%
    17:00 +1°C° 0 mm 8 mps 738 mmHg 51%
    18:00 +2°C° 0 mm 7 mps 738 mmHg 54%
    19:00 0°C° 0 mm 7 mps 738 mmHg 57%
    20:00 -1°C° 0 mm 6 mps 738 mmHg 59%
    21:00 -1°C° 0 mm 6 mps 738 mmHg 62%
    22:00 -2°C° 0 mm 6 mps 738 mmHg 62%
    23:00 -2°C° 0 mm 6 mps 738 mmHg 63%

    25 Marzo, Lunes

    Tiempo Temperatura Precipitaciones Viento Presión Humedad
    00:00 -3°C° 0 mm 6 mps 738 mmHg 64%
    01:00 -3°C° 0 mm 6 mps 738 mmHg 65%
    02:00 -3°C° 0 mm 6 mps 738 mmHg 65%
    03:00 -4°C° 0 mm 5 mps 738 mmHg 66%
    04:00 -4°C° 0 mm 5 mps 738 mmHg 67%
    05:00 -4°C° 0 mm 5 mps 738 mmHg 67%
    06:00 -4°C° 0 mm 5 mps 738 mmHg 67%
    07:00 -2°C° 0 mm 5 mps 738 mmHg 63%
    08:00 -3°C° 0 mm 6 mps 738 mmHg 59%
    09:00 -2°C° 0 mm 6 mps 738 mmHg 54%
    10:00 -1°C° 0 mm 6 mps 738 mmHg 50%
    11:00 +1°C° 0 mm 6 mps 737 mmHg 46%
    12:00 +2°C° 0 mm 6 mps 737 mmHg 42%
    13:00 +3°C° 0 mm 6 mps 736 mmHg 42%
    14:00 +3°C° 0 mm 6 mps 736 mmHg 43%
    15:00 +4°C° 0 mm 6 mps 735 mmHg 43%
    16:00 +3°C° 0.1 mm 5 mps 735 mmHg 49%
    17:00 +4°C° 0.1 mm 4 mps 734 mmHg 54%
    18:00 +3°C° 0.1 mm 4 mps 734 mmHg 60%
    19:00 +2°C° 0.1 mm 3 mps 733 mmHg 65%
    20:00 +2°C° 0.1 mm 3 mps 733 mmHg 71%
    21:00 +1°C° 0.1 mm 3 mps 732 mmHg 76%
    22:00 +1°C° 0.1 mm 3 mps 732 mmHg 80%
    23:00 0°C° 0.1 mm 4 mps 731 mmHg 83%
    Mostrar más